Погода в Новосвободной

Россия / Республика Адыгея     44°21′07″N   40°24′45″E
темп.,
°C
ветер,
м/с
пор.,
м/с
влажн.,
%
обл.,
%
осадки,
мм/ч
давл.,
гПа
погр.,
м
16 января, вс
вс1600:00−8юз378386 0.0 1013159
03:00−7юз387985 0.0 1013257
06:00−6зюз388996 0.4 1014517
09:00−5з288598 0.5 1016495
12:00−3зсз587285 0.3 10171161
15:00−3сз588047 0.3 1018984
18:00−7зюз249530 0.1 1021115
21:00−8юз2296100 0.3 102375
17 января, пн
пн1700:00−8юз219664 0.1 102422
03:00−10ююз22925 0.1 102526
06:00−11ююз22865 0.0 102528
09:00−8ююз22711 0.0 102455
12:00−1ююз12500 0.0 1021637
15:00+1ссз12542 0.0 1018656
18:00−7ююз22895 0.0 101823
21:00−8ююз228574 0.0 101731
18 января, вт
вт1800:00−6ююз2282100 0.0 101538
03:00−4ююз2379100 0.2 101265
06:00−4ю3477100 0.0 101080
09:00−1ююз41167100 0.0 1007514
12:00+3ююз61559100 0.0 10061253
15:00+3ююз71754100 0.1 10061375
18:00−4сз3897100 1.0 1013563
21:00−4ююв1296100 5.4 101577
19 января, ср
ср1900:00−5з1297100 0.1 101557
03:00−6сз1396100 0.9 1017252
06:00−6ююв1197100 0.4 101763
09:00−7зюз119362 0.5 101992
12:00−3ссв1276100 0.1 1018621
15:00−3ссз2386100 1.4 1017387
18:00−6сз2596100 3.8 1020416
21:00−8ююз0197100 5.1 102048
20 января, чт
чт2000:00−11юз1198100 0.2 102213
03:00−10юз129698 0.6 1023117
06:00−10юз1295100 0.2 1022147
09:00−9зюз139290 0.4 1023230
12:00−5зсз1378100 0.1 1021790
15:00−5ссз2492100 0.7 1021605
18:00−6с1297100 1.3 1022161
21:00−11ююз219553 1.6 102517